Location: B?dimalle
(17.1788°N, 80.5377°E)
Time: 10:25:11
(UTC+00:00)

Tiros 1 despin weight - Pass Details

Date: 16 February 2026
Orbit: 556 x 593 km, 48.2° (Epoch: 10 March)

Event Time Altitude Azimuth Distance (km) Brightness Sun altitude
Rises 07:08:00 0° 190° (S) 2,759 ? 60.3°
Reaches altitude 10° 07:10:53 10° 170° (S) 1,855 ? 60.2°
Maximum altitude 07:13:43 17° 128° (SE) 1,432 ? 60.0°
Drops below altitude 10° 07:16:32 10° 86° (E) 1,843 ? 59.9°
Sets 07:19:22 0° 66° (ENE) 2,733 ? 59.8°
